EN

Hourly Weather Laguna Quilotoa

Today, 25 July, Sunday

Time Temperature Precipitation Wind Pressure Humidity
00:00 +4°C° 0 mm 1 mps 488 mmHg 92%
01:00 +3°C° 0 mm 1 mps 488 mmHg 92%
02:00 +3°C° 0 mm 1 mps 487 mmHg 92%
03:00 +3°C° 0 mm 1 mps 487 mmHg 91%
04:00 +3°C° 0 mm 1 mps 487 mmHg 91%
05:00 +3°C° 0 mm 1 mps 487 mmHg 91%
06:00 +3°C° 0 mm 1 mps 487 mmHg 90%
07:00 +2°C° 0 mm 2 mps 487 mmHg 89%
08:00 +4°C° 0 mm 2 mps 488 mmHg 83%
09:00 +6°C° 0 mm 2 mps 490 mmHg 77%
10:00 +8°C° 0 mm 3 mps 491 mmHg 71%
11:00 +8°C° 0.2 mm 3 mps 491 mmHg 73%
12:00 +8°C° 0.2 mm 3 mps 490 mmHg 74%
13:00 +8°C° 0.2 mm 3 mps 490 mmHg 76%
14:00 +8°C° 0.4 mm 3 mps 490 mmHg 79%
15:00 +7°C° 0.4 mm 3 mps 489 mmHg 82%
16:00 +7°C° 0.4 mm 2 mps 489 mmHg 84%
17:00 +6°C° 0.3 mm 2 mps 488 mmHg 87%
18:00 +7°C° 0.3 mm 1 mps 488 mmHg 89%
19:00 +6°C° 0.3 mm 1 mps 488 mmHg 92%
20:00 +5°C° 0.1 mm 1 mps 488 mmHg 92%
21:00 +4°C° 0.1 mm 1 mps 488 mmHg 93%
22:00 +4°C° 0.1 mm 1 mps 488 mmHg 93%
23:00 +4°C° 0 mm 1 mps 488 mmHg 91%

Tomorrow, 26 July, Monday

Time Temperature Precipitation Wind Pressure Humidity
00:00 +2°C° 0 mm 2 mps 488 mmHg 90%
01:00 +2°C° 0 mm 2 mps 487 mmHg 88%
02:00 +2°C° 0 mm 2 mps 487 mmHg 88%
03:00 +2°C° 0 mm 2 mps 487 mmHg 87%
04:00 +2°C° 0 mm 2 mps 486 mmHg 87%
05:00 +2°C° 0 mm 2 mps 487 mmHg 85%
06:00 +2°C° 0 mm 2 mps 487 mmHg 83%
07:00 +2°C° 0 mm 2 mps 487 mmHg 82%
08:00 +5°C° 0 mm 2 mps 489 mmHg 75%
09:00 +7°C° 0 mm 3 mps 490 mmHg 69%
10:00 +9°C° 0 mm 3 mps 491 mmHg 62%
11:00 +9°C° 0.2 mm 3 mps 491 mmHg 64%
12:00 +9°C° 0.2 mm 3 mps 491 mmHg 67%
13:00 +10°C° 0.2 mm 3 mps 491 mmHg 69%
14:00 +9°C° 0.4 mm 3 mps 490 mmHg 73%
15:00 +8°C° 0.4 mm 3 mps 489 mmHg 76%
16:00 +8°C° 0.4 mm 3 mps 489 mmHg 80%
17:00 +7°C° 0.2 mm 2 mps 488 mmHg 84%
18:00 +6°C° 0.2 mm 2 mps 488 mmHg 87%
19:00 +6°C° 0.2 mm 1 mps 488 mmHg 91%
20:00 +5°C° 0.1 mm 1 mps 488 mmHg 91%
21:00 +4°C° 0.1 mm 1 mps 488 mmHg 91%
22:00 +4°C° 0.1 mm 1 mps 488 mmHg 91%
23:00 +2°C° 0.1 mm 2 mps 488 mmHg 90%

Day after tomorrow, 27 July, Tuesday

Time Temperature Precipitation Wind Pressure Humidity
00:00 +2°C° 0.1 mm 2 mps 487 mmHg 89%
01:00 +2°C° 0.1 mm 2 mps 487 mmHg 87%
02:00 +1°C° 0 mm 2 mps 487 mmHg 87%
03:00 +1°C° 0 mm 2 mps 486 mmHg 86%
04:00 +1°C° 0 mm 2 mps 486 mmHg 85%
05:00 +1°C° 0 mm 2 mps 486 mmHg 85%
06:00 +1°C° 0 mm 2 mps 487 mmHg 84%
07:00 +2°C° 0 mm 2 mps 487 mmHg 83%
08:00 +3°C° 0 mm 3 mps 489 mmHg 75%
09:00 +5°C° 0 mm 3 mps 490 mmHg 68%
10:00 +9°C° 0 mm 3 mps 491 mmHg 61%
11:00 +9°C° 0.2 mm 3 mps 491 mmHg 65%
12:00 +9°C° 0.2 mm 3 mps 491 mmHg 69%
13:00 +9°C° 0.2 mm 3 mps 491 mmHg 74%
14:00 +9°C° 0.5 mm 3 mps 490 mmHg 76%
15:00 +8°C° 0.5 mm 2 mps 489 mmHg 78%
16:00 +8°C° 0.5 mm 2 mps 489 mmHg 80%
17:00 +7°C° 0.3 mm 2 mps 489 mmHg 84%
18:00 +6°C° 0.3 mm 2 mps 489 mmHg 87%
19:00 +6°C° 0.3 mm 1 mps 488 mmHg 91%
20:00 +6°C° 0.2 mm 1 mps 488 mmHg 92%
21:00 +5°C° 0.2 mm 1 mps 488 mmHg 93%
22:00 +4°C° 0.2 mm 1 mps 488 mmHg 94%
23:00 +4°C° 0.1 mm 1 mps 488 mmHg 94%

28 July, Wednesday

Time Temperature Precipitation Wind Pressure Humidity
00:00 +4°C° 0.1 mm 1 mps 488 mmHg 94%
01:00 +4°C° 0.1 mm 1 mps 487 mmHg 94%
02:00 +3°C° 0.1 mm 1 mps 487 mmHg 93%
03:00 +2°C° 0.1 mm 2 mps 487 mmHg 93%
04:00 +1°C° 0.1 mm 2 mps 486 mmHg 92%
05:00 +2°C° 0 mm 2 mps 487 mmHg 92%
06:00 +2°C° 0 mm 2 mps 487 mmHg 91%
07:00 +2°C° 0 mm 2 mps 487 mmHg 90%
08:00 +4°C° 0 mm 2 mps 488 mmHg 84%
09:00 +5°C° 0 mm 3 mps 490 mmHg 77%
10:00 +8°C° 0 mm 3 mps 491 mmHg 70%
11:00 +9°C° 0.5 mm 3 mps 491 mmHg 71%
12:00 +9°C° 0.5 mm 3 mps 491 mmHg 73%
13:00 +9°C° 0.5 mm 3 mps 491 mmHg 74%
14:00 +9°C° 0.8 mm 3 mps 490 mmHg 77%
15:00 +8°C° 0.8 mm 2 mps 489 mmHg 80%
16:00 +8°C° 0.8 mm 2 mps 489 mmHg 83%
17:00 +7°C° 0.2 mm 2 mps 488 mmHg 85%
18:00 +7°C° 0.2 mm 1 mps 488 mmHg 87%
19:00 +6°C° 0.2 mm 1 mps 488 mmHg 90%
20:00 +5°C° 0 mm 1 mps 488 mmHg 90%
21:00 +4°C° 0 mm 2 mps 488 mmHg 90%
22:00 +3°C° 0 mm 2 mps 488 mmHg 90%
23:00 +3°C° 0 mm 2 mps 488 mmHg 90%

29 July, Thursday

Time Temperature Precipitation Wind Pressure Humidity
00:00 +3°C° 0 mm 2 mps 487 mmHg 90%
01:00 +3°C° 0 mm 2 mps 487 mmHg 90%
02:00 +3°C° 0 mm 2 mps 487 mmHg 90%
03:00 +3°C° 0 mm 2 mps 487 mmHg 90%
04:00 +3°C° 0 mm 2 mps 487 mmHg 90%
05:00 +3°C° 0 mm 2 mps 487 mmHg 89%
06:00 +3°C° 0 mm 2 mps 487 mmHg 89%
07:00 +3°C° 0 mm 2 mps 488 mmHg 89%
08:00 +5°C° 0 mm 2 mps 489 mmHg 81%
09:00 +7°C° 0 mm 2 mps 490 mmHg 74%
10:00 +9°C° 0 mm 2 mps 491 mmHg 66%
11:00 +9°C° 0.1 mm 3 mps 491 mmHg 65%
12:00 +10°C° 0.1 mm 3 mps 491 mmHg 65%
13:00 +10°C° 0.1 mm 3 mps 491 mmHg 64%
14:00 +10°C° 0.2 mm 3 mps 490 mmHg 68%
15:00 +9°C° 0.2 mm 3 mps 489 mmHg 73%
16:00 +8°C° 0.2 mm 3 mps 489 mmHg 77%
17:00 +7°C° 0.1 mm 2 mps 488 mmHg 81%
18:00 +5°C° 0.1 mm 2 mps 488 mmHg 86%
19:00 +4°C° 0.1 mm 2 mps 488 mmHg 90%
20:00 +4°C° 0 mm 2 mps 488 mmHg 90%
21:00 +3°C° 0 mm 2 mps 488 mmHg 90%
22:00 +3°C° 0 mm 2 mps 488 mmHg 90%
23:00 +3°C° 0 mm 2 mps 488 mmHg 89%

30 July, Friday

Time Temperature Precipitation Wind Pressure Humidity
00:00 +2°C° 0 mm 2 mps 487 mmHg 89%
01:00 +2°C° 0 mm 2 mps 487 mmHg 89%
02:00 +2°C° 0 mm 2 mps 487 mmHg 88%
03:00 +2°C° 0 mm 2 mps 487 mmHg 88%
04:00 +2°C° 0 mm 2 mps 486 mmHg 88%
05:00 +2°C° 0 mm 2 mps 487 mmHg 87%
06:00 +3°C° 0 mm 2 mps 487 mmHg 86%
07:00 +3°C° 0 mm 2 mps 487 mmHg 85%
08:00 +5°C° 0 mm 2 mps 489 mmHg 77%
09:00 +7°C° 0 mm 3 mps 490 mmHg 68%
10:00 +9°C° 0 mm 3 mps 491 mmHg 60%
11:00 +9°C° 0.5 mm 3 mps 491 mmHg 68%
12:00 +8°C° 0.5 mm 3 mps 490 mmHg 75%
13:00 +7°C° 0.5 mm 3 mps 489 mmHg 83%
14:00 +5°C° 2.4 mm 3 mps 489 mmHg 84%
15:00 +6°C° 2.4 mm 2 mps 488 mmHg 85%
16:00 +5°C° 2.4 mm 2 mps 488 mmHg 86%
17:00 +5°C° 0.2 mm 2 mps 488 mmHg 86%
18:00 +4°C° 0.2 mm 2 mps 488 mmHg 85%
19:00 +4°C° 0.2 mm 2 mps 488 mmHg 85%
20:00 +3°C° 0 mm 3 mps 488 mmHg 85%
21:00 +2°C° 0 mm 3 mps 488 mmHg 85%
22:00 +2°C° 0 mm 3 mps 488 mmHg 85%
23:00 +2°C° 0 mm 3 mps 488 mmHg 85%
Show more